Location: Aufkirchen
(47.9603°N, 11.3653°E)
Time: 07:33:56
(UTC+01:00)

Transit 4A - Pass Details

Date: 27 November 2020
Orbit: 864 x 980 km, 66.8° (Epoch: 25 January)

Event Time Altitude Azimuth Distance (km) Brightness Sun altitude
Rises 08:31:44 0° 203° (SSW) 3,614 11.2 6.3°
Reaches altitude 10° 08:34:15 10° 201° (SSW) 2,686 10.6 6.6°
Maximum altitude 08:40:30 70° 120° (ESE) 1,035 8.7 7.4°
Drops below altitude 10° 08:46:53 10° 38° (NE) 2,740 10.3 8.2°
Sets 08:49:29 0° 36° (NE) 3,691 10.9 8.5°
